Kalispell, MT

3:20 PM MDT on May 26, 2017 (GMT -0600)
Glacier Park International

Weather History for KGPI - May, 2014

Change the Weather History Date:

Friday, May 9, 2014

  Actual Average Record
Temperature  
Mean Temperature 47 °F 50 °F  
Max Temperature 56 °F 63 °F 83 °F (1949)
Min Temperature 37 °F 36 °F 22 °F (2002)
Degree Days  
Heating Degree Days 18 15  
Month to date heating degree days 153 147  
Since 1 July heating degree days 7703 7558  
Cooling Degree Days 0 0  
Month to date cooling degree days 0 0  
Year to date cooling degree days 0 0  
Moisture  
Dew Point 40 °F    
Average Humidity 71    
Maximum Humidity 92    
Minimum Humidity 50    
Precipitation  
Precipitation 0.25 in 0.05 in 0.64 in (1905)
Month to date precipitation 0.48 0.43  
Year to date precipitation 6.53 5.06  
Snow  
Snow 0.00 in - - ()
Month to date snowfall 0.0  
Year to date snowfall 38.2  
Since 1 July snowfall 71.7  
Snow Depth 0.00 in    
Sea Level Pressure  
Sea Level Pressure 29.74 in    
Wind  
Wind Speed 5 mph (SSE)    
Max Wind Speed 20 mph    
Max Gust Speed 25 mph    
Visibility 9 miles    
Events Rain    
T = Trace of Precipitation, MM = Missing Value Source: NWS Daily Summary

Daily Weather History Graph

Daily Weather History Graph

Search for Another Location

Airport or City:

Trip Planner

Search our weather history database for the weather conditions in past years. The results will help you decide how hot, cold, wet, or windy it might be!

Date:

Astronomy

May. 09, 2014 Rise Set
Actual Time 6:05 AM MDT 9:02 PM MDT
Civil Twilight 5:29 AM MDT 9:38 PM MDT
Nautical Twilight 4:42 AM MDT 10:26 PM MDT
Astronomical Twilight 3:45 AM MDT 11:23 PM MDT
Moon 3:40 PM MDT (5/9) 3:35 AM MDT (5/9)
Length of Visible Light 16h 09m
Length of Day
14h 57m
Waxing Gibbous, 74% of the Moon is Illuminated
May 9
Waxing Gibbous
May 14
Full
May 21
Last Quarter
May 28
New
Jun 5
First Quarter

Hourly Weather History & Observations

Time (MDT) Temp. Windchill Dew Point Humidity Pressure Visibility Wind Dir Wind Speed Gust Speed Precip Events Conditions
12:55 AM 42.1 °F - 35.1 °F 76% 29.65 in 10.0 mi Calm Calm - N/A   Overcast
1:55 AM 42.1 °F - 35.1 °F 76% 29.65 in 10.0 mi Calm Calm - N/A   Overcast
2:55 AM 42.8 °F - 35.6 °F 76% 29.65 in 10.0 mi Calm Calm - N/A   Overcast
3:55 AM 44.1 °F - 36.0 °F 73% 29.65 in 10.0 mi Calm Calm - N/A   Overcast
4:55 AM 44.1 °F 42.5 °F 37.0 °F 76% 29.65 in 10.0 mi North 3.5 mph - N/A   Overcast
5:55 AM 44.1 °F 42.5 °F 37.0 °F 76% 29.65 in 10.0 mi Variable 3.5 mph - 0.00 in Rain Light Rain
6:55 AM 43.0 °F 41.3 °F 39.9 °F 89% 29.67 in 6.0 mi NNE 3.5 mph - 0.02 in Rain Light Rain
7:55 AM 44.1 °F 42.5 °F 41.0 °F 89% 29.67 in 6.0 mi ENE 3.5 mph - 0.03 in Rain Light Rain
8:55 AM 44.1 °F 39.5 °F 41.0 °F 89% 29.70 in 5.0 mi South 8.1 mph - 0.05 in Rain Light Rain
9:55 AM 45.0 °F 40.1 °F 43.0 °F 93% 29.71 in 9.0 mi SSE 9.2 mph - 0.04 in Rain Light Rain
10:04 AM 45.0 °F 41.8 °F 43.0 °F 93% 29.69 in 8.0 mi SSE 5.8 mph - 0.01 in Rain Light Rain
10:10 AM 46.4 °F 41.9 °F 42.8 °F 87% 29.69 in 6.0 mi SE 9.2 mph - N/A Rain Light Rain
10:55 AM 45.0 °F 39.7 °F 42.1 °F 90% 29.73 in 6.0 mi SSE 10.4 mph - 0.05 in Rain Light Rain
11:10 AM 46.0 °F 41.4 °F 42.1 °F 86% 29.70 in 8.0 mi SSE 9.2 mph - 0.01 in Rain Light Rain
11:40 AM 45.0 °F 40.6 °F 43.0 °F 93% 29.71 in 6.0 mi SSW 8.1 mph - 0.05 in Rain Light Rain
11:55 AM 46.9 °F - 43.0 °F 86% 29.74 in 10.0 mi SSE 10.4 mph - 0.06 in Rain Light Rain
12:07 PM 46.9 °F - 44.1 °F 90% 29.71 in 10.0 mi SSE 10.4 mph - 0.00 in Rain Light Rain
12:55 PM 48.9 °F - 45.0 °F 86% 29.76 in 10.0 mi South 11.5 mph - 0.00 in Rain Light Rain
1:55 PM 50.0 °F - 39.9 °F 68% 29.77 in 10.0 mi South 8.1 mph - 0.00 in   Overcast
2:55 PM 51.1 °F - 42.1 °F 71% 29.77 in 10.0 mi SSE 11.5 mph - N/A   Overcast
3:55 PM 54.0 °F - 35.1 °F 49% 29.76 in 10.0 mi West 10.4 mph - N/A   Scattered Clouds
4:55 PM 54.0 °F - 37.0 °F 53% 29.76 in 10.0 mi SW 13.8 mph 19.6 mph 0.00 in Rain Light Rain
5:55 PM 54.0 °F - 41.0 °F 62% 29.77 in 10.0 mi SSW 6.9 mph - 0.00 in   Overcast
6:35 PM 50.0 °F - 39.9 °F 68% 29.77 in 10.0 mi NNE 11.5 mph - 0.00 in Rain Light Rain
6:55 PM 48.9 °F - 39.9 °F 71% 29.81 in 10.0 mi NNE 6.9 mph - 0.00 in   Overcast
7:55 PM 51.1 °F - 36.0 °F 56% 29.82 in 10.0 mi NW 3.5 mph - 0.00 in   Mostly Cloudy
8:55 PM 46.9 °F - 37.0 °F 68% 29.86 in 10.0 mi ENE 4.6 mph - N/A   Mostly Cloudy
9:55 PM 44.1 °F - 39.0 °F 82% 29.87 in 10.0 mi Calm Calm - 0.00 in   Overcast
10:55 PM 39.9 °F - 37.0 °F 89% 29.89 in 10.0 mi Calm Calm - N/A   Mostly Cloudy
11:55 PM 37.9 °F - 36.0 °F 93% 29.89 in 10.0 mi Calm Calm - N/A   Clear